Time,TemperatureF,DewpointF,PressureIn,WindDirection,WindDirectionDegrees,WindSpeedMPH,WindSpeedGustMPH,Humidity,HourlyPrecipIn,Conditions,Clouds,dailyrainin,SoftwareType,DateUTC
2013-01-22 00:06:00,50.4,25.8,29.97,NE,45,5.8,-999.0,38,-99.99,,,0.00,Acu-Link.com,2013-01-22 08:06:00,
2013-01-22 00:21:00,50.2,25.6,29.96,NE,45,4.2,-999.0,38,-99.99,,,0.00,Acu-Link.com,2013-01-22 08:21:00,
2013-01-22 00:36:00,50.0,25.4,29.96,NE,45,5.3,-999.0,38,-99.99,,,0.00,Acu-Link.com,2013-01-22 08:36:00,
2013-01-22 00:52:00,49.8,25.2,29.96,NE,45,5.3,-999.0,38,-99.99,,,0.00,Acu-Link.com,2013-01-22 08:52:00,
2013-01-22 01:14:00,50.4,25.1,29.95,NE,45,6.8,-999.0,37,-99.99,,,0.00,Acu-Link.com,2013-01-22 09:14:00,
2013-01-22 01:29:00,50.5,24.6,29.95,East,90,5.8,-999.0,36,-99.99,,,0.00,Acu-Link.com,2013-01-22 09:29:00,
2013-01-22 01:45:00,52.3,22.6,29.96,ENE,67,5.8,-999.0,31,-99.99,,,0.00,Acu-Link.com,2013-01-22 09:45:00,
2013-01-22 02:00:00,50.0,24.8,29.96,NE,45,3.2,-999.0,37,-99.99,,,0.00,Acu-Link.com,2013-01-22 10:00:00,
2013-01-22 02:15:00,48.7,25.5,29.96,North,0,4.2,-999.0,40,-99.99,,,0.00,Acu-Link.com,2013-01-22 10:15:00,
2013-01-22 02:30:00,47.8,25.8,29.96,NE,45,5.3,-999.0,42,-99.99,,,0.00,Acu-Link.com,2013-01-22 10:30:00,
2013-01-22 02:45:00,48.4,25.2,29.96,NE,45,4.2,-999.0,40,-99.99,,,0.00,Acu-Link.com,2013-01-22 10:45:00,
2013-01-22 03:01:00,49.6,23.1,29.96,NNE,22,5.3,-999.0,35,-99.99,,,0.00,Acu-Link.com,2013-01-22 11:01:00,
2013-01-22 03:31:00,50.5,22.5,29.95,NE,45,7.3,-999.0,33,-99.99,,,0.00,Acu-Link.com,2013-01-22 11:31:00,
2013-01-22 03:46:00,51.8,21.4,29.94,ESE,112,6.3,-999.0,30,-99.99,,,0.00,Acu-Link.com,2013-01-22 11:46:00,
2013-01-22 04:02:00,51.3,21.7,29.93,SSW,202,6.3,-999.0,31,-99.99,,,0.00,Acu-Link.com,2013-01-22 12:02:00,
2013-01-22 04:17:00,50.9,22.8,29.93,East,90,4.7,-999.0,33,-99.99,,,0.00,Acu-Link.com,2013-01-22 12:17:00,
2013-01-22 04:32:00,51.8,22.1,29.93,ESE,112,3.7,-999.0,31,-99.99,,,0.00,Acu-Link.com,2013-01-22 12:32:00,
2013-01-22 04:47:00,52.2,21.7,29.94,NE,45,7.8,-999.0,30,-99.99,,,0.00,Acu-Link.com,2013-01-22 12:47:00,
2013-01-22 05:03:00,53.2,21.0,29.94,ENE,67,5.3,-999.0,28,-99.99,,,0.00,Acu-Link.com,2013-01-22 13:03:00,
2013-01-22 05:18:00,52.2,21.7,29.93,NW,315,6.3,-999.0,30,-99.99,,,0.00,Acu-Link.com,2013-01-22 13:18:00,
2013-01-22 05:33:00,52.2,21.7,29.93,East,90,4.7,-999.0,30,-99.99,,,0.00,Acu-Link.com,2013-01-22 13:33:00,
2013-01-22 05:48:00,52.7,22.2,29.94,East,90,7.8,-999.0,30,-99.99,,,0.00,Acu-Link.com,2013-01-22 13:48:00,
2013-01-22 06:04:00,51.6,22.0,29.94,NE,45,6.8,-999.0,31,-99.99,,,0.00,Acu-Link.com,2013-01-22 14:04:00,
2013-01-22 06:19:00,51.6,22.0,29.94,NE,45,9.4,-999.0,31,-99.99,,,0.00,Acu-Link.com,2013-01-22 14:19:00,
2013-01-22 06:34:00,52.7,21.4,29.94,NE,45,5.3,-999.0,29,-99.99,,,0.00,Acu-Link.com,2013-01-22 14:34:00,
2013-01-22 06:49:00,53.8,20.6,29.94,East,90,5.3,-999.0,27,-99.99,,,0.00,Acu-Link.com,2013-01-22 14:49:00,
2013-01-22 07:05:00,53.4,21.1,29.94,NE,45,9.4,-999.0,28,-99.99,,,0.00,Acu-Link.com,2013-01-22 15:05:00,
2013-01-22 07:20:00,54.1,20.0,29.95,ESE,112,6.3,-999.0,26,-99.99,,,0.00,Acu-Link.com,2013-01-22 15:20:00,
2013-01-22 07:35:00,54.9,19.8,29.95,NE,45,7.3,-999.0,25,-99.99,,,0.00,Acu-Link.com,2013-01-22 15:35:00,
2013-01-22 07:50:00,54.3,20.2,29.95,NE,45,5.3,-999.0,26,-99.99,,,0.00,Acu-Link.com,2013-01-22 15:50:00,
2013-01-22 08:06:00,53.8,20.6,29.95,NNE,22,6.3,-999.0,27,-99.99,,,0.00,Acu-Link.com,2013-01-22 16:06:00,
2013-01-22 08:21:00,53.4,22.0,29.94,ENE,67,5.3,-999.0,29,-99.99,,,0.00,Acu-Link.com,2013-01-22 16:21:00,
2013-01-22 08:51:00,51.4,24.0,29.95,ESE,112,9.4,-999.0,34,-99.99,,,0.00,Acu-Link.com,2013-01-22 16:51:00,
2013-01-22 09:07:00,54.5,23.7,29.95,ENE,67,6.3,-999.0,30,-99.99,,,0.00,Acu-Link.com,2013-01-22 17:07:00,
2013-01-22 09:22:00,54.7,26.2,29.96,ENE,67,7.8,-999.0,33,-99.99,,,0.00,Acu-Link.com,2013-01-22 17:22:00,
2013-01-22 09:37:00,55.2,27.3,29.96,ENE,67,2.7,-999.0,34,-99.99,,,0.00,Acu-Link.com,2013-01-22 17:37:00,
2013-01-22 09:52:00,54.1,24.9,29.97,East,90,3.2,-999.0,32,-99.99,,,0.00,Acu-Link.com,2013-01-22 17:52:00,
2013-01-22 10:23:00,59.5,26.4,29.97,ENE,67,5.8,-999.0,28,-99.99,,,0.00,Acu-Link.com,2013-01-22 18:23:00,
2013-01-22 10:38:00,61.0,27.7,29.98,NE,45,7.8,-999.0,28,-99.99,,,0.00,Acu-Link.com,2013-01-22 18:38:00,
2013-01-22 10:53:00,62.8,28.3,29.98,NE,45,5.8,-999.0,27,-99.99,,,0.00,Acu-Link.com,2013-01-22 18:53:00,
2013-01-22 11:08:00,63.7,29.1,29.99,ENE,67,5.8,-999.0,27,-99.99,,,0.00,Acu-Link.com,2013-01-22 19:08:00,
2013-01-22 11:23:00,64.8,30.0,29.98,NW,315,4.2,-999.0,27,-99.99,,,0.00,Acu-Link.com,2013-01-22 19:23:00,
2013-01-22 11:39:00,65.3,30.5,29.97,NNW,337,8.3,-999.0,27,-99.99,,,0.00,Acu-Link.com,2013-01-22 19:39:00,
2013-01-22 11:54:00,65.3,31.4,29.96,NE,45,3.7,-999.0,28,-99.99,,,0.00,Acu-Link.com,2013-01-22 19:54:00,
2013-01-22 12:09:00,64.9,30.1,29.95,NNE,22,6.8,-999.0,27,-99.99,,,0.00,Acu-Link.com,2013-01-22 20:09:00,
2013-01-22 12:24:00,63.5,29.8,29.94,East,90,1.7,-999.0,28,-99.99,,,0.00,Acu-Link.com,2013-01-22 20:24:00,
2013-01-22 12:39:00,66.0,30.1,29.93,North,0,4.2,-999.0,26,-99.99,,,0.00,Acu-Link.com,2013-01-22 20:39:00,
2013-01-22 12:55:00,68.4,29.2,29.93,NE,45,4.7,-999.0,23,-99.99,,,0.00,Acu-Link.com,2013-01-22 20:55:00,
2013-01-22 13:10:00,67.6,29.5,29.92,NE,45,3.7,-999.0,24,-99.99,,,0.00,Acu-Link.com,2013-01-22 21:10:00,
2013-01-22 13:25:00,67.5,27.3,29.91,NNW,337,7.8,-999.0,22,-99.99,,,0.00,Acu-Link.com,2013-01-22 21:25:00,
2013-01-22 13:40:00,67.8,28.7,29.90,WSW,247,9.9,-999.0,23,-99.99,,,0.00,Acu-Link.com,2013-01-22 21:40:00,
2013-01-22 13:56:00,68.0,28.8,29.90,ENE,67,7.3,-999.0,23,-99.99,,,0.00,Acu-Link.com,2013-01-22 21:56:00,
2013-01-22 14:11:00,66.4,29.5,29.90,NE,45,3.7,-999.0,25,-99.99,,,0.00,Acu-Link.com,2013-01-22 22:11:00,
2013-01-22 14:26:00,63.9,30.2,29.90,NE,45,6.8,-999.0,28,-99.99,,,0.00,Acu-Link.com,2013-01-22 22:26:00,
2013-01-22 14:41:00,62.8,29.2,29.89,SE,135,4.2,-999.0,28,-99.99,,,0.00,Acu-Link.com,2013-01-22 22:41:00,
2013-01-22 15:12:00,63.1,27.7,29.89,East,90,3.7,-999.0,26,-99.99,,,0.00,Acu-Link.com,2013-01-22 23:12:00,
2013-01-22 15:27:00,63.9,31.0,29.89,NE,45,4.2,-999.0,29,-99.99,,,0.00,Acu-Link.com,2013-01-22 23:27:00,
2013-01-22 15:57:00,61.3,31.2,29.88,East,90,2.7,-999.0,32,-99.99,,,0.00,Acu-Link.com,2013-01-22 23:57:00,
2013-01-22 16:12:00,60.4,32.6,29.88,ENE,67,3.7,-999.0,35,-99.99,,,0.00,Acu-Link.com,2013-01-23 00:12:00,
2013-01-22 16:28:00,59.9,32.9,29.87,SSE,157,7.3,-999.0,36,-99.99,,,0.00,Acu-Link.com,2013-01-23 00:28:00,
2013-01-22 16:43:00,58.8,33.9,29.87,ENE,67,5.3,-999.0,39,-99.99,,,0.00,Acu-Link.com,2013-01-23 00:43:00,
2013-01-22 16:58:00,57.9,33.7,29.86,ENE,67,3.2,-999.0,40,-99.99,,,0.00,Acu-Link.com,2013-01-23 00:58:00,
2013-01-22 17:13:00,57.9,33.1,29.87,ENE,67,8.9,-999.0,39,-99.99,,,0.00,Acu-Link.com,2013-01-23 01:13:00,
2013-01-22 17:28:00,56.3,35.2,29.86,ENE,67,4.2,-999.0,45,-99.99,,,0.00,Acu-Link.com,2013-01-23 01:28:00,
2013-01-22 17:44:00,55.0,35.7,29.87,NNE,22,4.2,-999.0,48,-99.99,,,0.00,Acu-Link.com,2013-01-23 01:44:00,
2013-01-22 17:59:00,54.7,35.9,29.87,ENE,67,3.7,-999.0,49,-99.99,,,0.00,Acu-Link.com,2013-01-23 01:59:00,
2013-01-22 18:14:00,54.3,35.6,29.87,ENE,67,6.3,-999.0,49,-99.99,,,0.00,Acu-Link.com,2013-01-23 02:14:00,
2013-01-22 18:30:00,54.9,35.6,29.88,ENE,67,5.3,-999.0,48,-99.99,,,0.00,Acu-Link.com,2013-01-23 02:30:00,
2013-01-22 18:45:00,54.3,35.6,29.87,NE,45,3.7,-999.0,49,-99.99,,,0.00,Acu-Link.com,2013-01-23 02:45:00,
2013-01-22 19:00:00,53.6,35.9,29.87,ENE,67,2.7,-999.0,51,-99.99,,,0.00,Acu-Link.com,2013-01-23 03:00:00,
2013-01-22 19:15:00,53.6,35.9,29.88,East,90,3.2,-999.0,51,-99.99,,,0.00,Acu-Link.com,2013-01-23 03:15:00,
2013-01-22 19:30:00,53.6,35.9,29.88,ENE,67,4.2,-999.0,51,-99.99,,,0.00,Acu-Link.com,2013-01-23 03:30:00,
2013-01-22 19:46:00,53.4,35.7,29.88,NE,45,4.7,-999.0,51,-99.99,,,0.00,Acu-Link.com,2013-01-23 03:46:00,
2013-01-22 20:31:00,52.5,35.4,29.88,NE,45,3.7,-999.0,52,-99.99,,,0.00,Acu-Link.com,2013-01-23 04:31:00,
2013-01-22 20:46:00,52.5,34.9,29.89,ENE,67,3.7,-999.0,51,-99.99,,,0.00,Acu-Link.com,2013-01-23 04:46:00,
2013-01-22 21:17:00,51.4,35.8,29.90,NE,45,2.7,-999.0,55,-99.99,,,0.00,Acu-Link.com,2013-01-23 05:17:00,
2013-01-22 21:32:00,50.9,35.8,29.90,NE,45,4.7,-999.0,56,-99.99,,,0.00,Acu-Link.com,2013-01-23 05:32:00,
2013-01-22 21:47:00,51.1,35.0,29.90,NE,45,3.2,-999.0,54,-99.99,,,0.00,Acu-Link.com,2013-01-23 05:47:00,
2013-01-22 22:03:00,50.4,35.7,29.91,NE,45,5.8,-999.0,57,-99.99,,,0.00,Acu-Link.com,2013-01-23 06:03:00,
2013-01-22 22:18:00,50.4,34.8,29.90,NE,45,5.3,-999.0,55,-99.99,,,0.00,Acu-Link.com,2013-01-23 06:18:00,
2013-01-22 22:34:00,51.4,33.4,29.91,East,90,4.2,-999.0,50,-99.99,,,0.00,Acu-Link.com,2013-01-23 06:34:00,
2013-01-22 22:49:00,51.4,33.9,29.91,ESE,112,2.7,-999.0,51,-99.99,,,0.00,Acu-Link.com,2013-01-23 06:49:00,
2013-01-22 23:04:00,51.6,34.1,29.91,NE,45,4.7,-999.0,51,-99.99,,,0.00,Acu-Link.com,2013-01-23 07:04:00,
2013-01-22 23:19:00,51.3,33.8,29.91,NE,45,3.7,-999.0,51,-99.99,,,0.00,Acu-Link.com,2013-01-23 07:19:00,
2013-01-22 23:34:00,51.4,33.9,29.91,ENE,67,6.8,-999.0,51,-99.99,,,0.00,Acu-Link.com,2013-01-23 07:34:00,
2013-01-22 23:50:00,51.4,33.4,29.91,ENE,67,6.3,-999.0,50,-99.99,,,0.00,Acu-Link.com,2013-01-23 07:50:00,